TimeCEST,TemperatureF,Dew PointF,Humidity,Sea Level PressureIn,VisibilityMPH,Wind Direction,Wind SpeedMPH,Gust SpeedMPH,PrecipitationIn,Events,Conditions,WindDirDegrees,DateUTC
12:55 AM,68.0,64.4,88,30.09,-9999.0,NNW,9.2,-,N/A,,Clear,340,2012-10-06 22:55:00
1:55 AM,68.0,64.4,88,30.06,-9999.0,NNW,8.1,-,N/A,,Clear,330,2012-10-06 23:55:00
2:00 AM,67,65,89,30.08,12,NNW,8.1,,,,,330,2012-10-07 00:00:00
2:55 AM,68.0,64.4,88,30.06,-9999.0,NW,9.2,-,N/A,,Clear,320,2012-10-07 00:55:00
3:55 AM,68.0,64.4,88,30.06,-9999.0,NNW,5.8,-,N/A,,Clear,340,2012-10-07 01:55:00
4:55 AM,66.2,64.4,94,30.04,-9999.0,NE,16.1,-,N/A,,Clear,40,2012-10-07 02:55:00
5:55 AM,68.0,66.2,94,30.04,-9999.0,NE,16.1,-,N/A,,Clear,40,2012-10-07 03:55:00
6:55 AM,68.0,64.4,88,30.04,6.2,NE,12.7,-,N/A,,Partly Cloudy,40,2012-10-07 04:55:00
7:55 AM,66.2,62.6,88,30.04,6.2,North,8.1,-,N/A,,Partly Cloudy,10,2012-10-07 05:55:00
8:00 AM,67,63,81,30.04,12,North,8.1,,,,Scattered Clouds,10,2012-10-07 06:00:00
8:55 AM,68.0,64.4,88,30.04,6.2,NNW,5.8,-,N/A,,Partly Cloudy,340,2012-10-07 06:55:00
9:55 AM,69.8,64.4,83,30.04,6.2,NNE,6.9,-,N/A,,Scattered Clouds,30,2012-10-07 07:55:00
10:55 AM,75.2,68.0,78,30.04,6.2,NNE,6.9,-,N/A,,Scattered Clouds,20,2012-10-07 08:55:00
11:55 AM,77.0,69.8,78,30.04,4.3,East,6.9,-,N/A,,Scattered Clouds,80,2012-10-07 09:55:00
12:55 PM,77.0,71.6,83,30.04,4.3,ESE,6.9,-,N/A,,Scattered Clouds,110,2012-10-07 10:55:00
1:55 PM,78.8,69.8,74,30.04,6.2,ESE,6.9,-,N/A,,Scattered Clouds,120,2012-10-07 11:55:00
2:00 PM,80,71,66,30.01,6,ESE,6.9,,,,Mist,120,2012-10-07 12:00:00
2:55 PM,78.8,69.8,74,30.04,5.0,SE,6.9,-,N/A,,Scattered Clouds,130,2012-10-07 12:55:00
3:55 PM,78.8,69.8,74,30.01,5.6,South,3.5,-,N/A,,Scattered Clouds,170,2012-10-07 13:55:00
4:55 PM,75.2,71.6,89,29.98,5.6,SSW,6.9,-,N/A,,Scattered Clouds,200,2012-10-07 14:55:00
5:55 PM,73.4,71.6,94,29.98,5.6,SSW,6.9,-,N/A,,Scattered Clouds,200,2012-10-07 15:55:00
6:55 PM,71.6,69.8,94,29.98,5.6,SSW,5.8,-,N/A,,Scattered Clouds,200,2012-10-07 16:55:00
7:55 PM,71.6,69.8,94,29.98,5.6,SSW,6.9,-,N/A,,Scattered Clouds,210,2012-10-07 17:55:00
8:00 PM,71,69,93,29.98,2,SSW,6.9,,,,Mist,210,2012-10-07 18:00:00
8:55 PM,71.6,68.0,88,29.98,5.6,SW,6.9,-,N/A,,Scattered Clouds,220,2012-10-07 18:55:00
9:55 PM,71.6,68.0,88,29.98,5.6,SW,5.8,-,N/A,,Scattered Clouds,220,2012-10-07 19:55:00
10:55 PM,69.8,64.4,83,29.98,-9999.0,WSW,3.5,-,N/A,,Clear,240,2012-10-07 20:55:00
11:55 PM,71.6,66.2,83,29.98,6.2,SE,4.6,-,N/A,,Scattered Clouds,130,2012-10-07 21:55:00